Location: *
(49.3500°N, 12.6000°E)
Time: 18:29:26
(UTC+00:00)

STARLINK-43 - Pass Details

Date: 18 October 2019
Orbit: 478 x 481 km, 53.0° (Epoch: 12 November)

Event Time Altitude Azimuth Distance (km) Brightness Sun altitude
Rises 16:40:02 0° 271° (W) 2,532 9.3 -5.0°
Reaches altitude 10° 16:42:14 10° 277° (W) 1,654 7.6 -5.3°
Maximum altitude 16:45:52 48° 353° (N) 632 3.9 -5.9°
Drops below altitude 10° 16:49:31 10° 70° (ENE) 1,658 5.4 -6.5°
Enters shadow 16:49:55 - 71° (ENE) 1,816 5.6 -6.5°
